sat.trackr.live / text

‹ back to catalog

UNKNOWN

NORAD 84292

UNKNOWN UNKNOWN UNKNOWN

§ Identity

Operator
Country
Launch date
Launch site
Launch vehicle
Mass (kg)
RCS (m²)

External: N2YO · Heavens-Above

§ Orbital elements

Epoch: 2026-09-18T06:04:09.622560Z

Period
231.11 min
Inclination
23.8040°
Eccentricity
0.4535241
Mean motion
6.23067660 rev/d
Perigee alt
439.2 km
Apogee alt
11,754.8 km
Semi-major
12,475.1 km
B*
1.0518e-3
RAAN
133.0986°
Arg perigee
193.5954°
Mean anomaly
148.3271°
Rev number
24,548

§ Raw data

UNKNOWN1 84292U          26261.25288915  .00001438  00000+0  10518-2 0  99942 84292  23.8040 133.0986 4535241 193.5954 148.3271  6.23067660245489

JSON: /api/v1/satellites/84292 · /tle

For live sub-satellite position, see the globe view (requires WebGL).

§ Visibility from observer

Set your observer location to see the next 7 days of passes ≥ 10°. The values pass through the URL so the page stays shareable.

No JS? Fill the form by hand. The geolocation button needs JavaScript.